TimeEEST,TemperatureF,Dew PointF,Humidity,Sea Level PressureIn,VisibilityMPH,Wind Direction,Wind SpeedMPH,Gust SpeedMPH,PrecipitationIn,Events,Conditions,WindDirDegrees,DateUTC
4:50 AM,68.0,51.8,56,30.09,-9999.0,NE,8.1,-,N/A,,Clear,40,2012-10-01 01:50:00
5:20 AM,68.0,51.8,56,30.09,-9999.0,NE,8.1,-,N/A,,Clear,40,2012-10-01 02:20:00
5:50 AM,68.0,51.8,56,30.09,-9999.0,Calm,Calm,-,N/A,,Clear,0,2012-10-01 02:50:00
6:20 AM,68.0,51.8,56,30.09,-9999.0,Calm,Calm,-,N/A,,Clear,0,2012-10-01 03:20:00
6:50 AM,68.0,53.6,60,30.09,-9999.0,Calm,Calm,-,N/A,,Clear,0,2012-10-01 03:50:00
7:20 AM,66.2,53.6,64,30.09,-9999.0,Calm,Calm,-,N/A,,Clear,0,2012-10-01 04:20:00
7:50 AM,66.2,53.6,64,30.09,-9999.0,Calm,Calm,-,N/A,,Clear,0,2012-10-01 04:50:00
8:20 AM,60.8,50.0,68,30.12,-9999.0,Calm,Calm,-,N/A,,Clear,0,2012-10-01 05:20:00
8:50 AM,62.6,53.6,72,30.12,-9999.0,Calm,Calm,-,N/A,,Clear,0,2012-10-01 05:50:00
9:00 AM,63,53,60,30.13,6,Calm,Calm,,,,,,2012-10-01 06:00:00
9:20 AM,66.2,53.6,64,30.12,-9999.0,Calm,Calm,-,N/A,,Clear,0,2012-10-01 06:20:00
9:50 AM,69.8,53.6,56,30.12,-9999.0,East,8.1,-,N/A,,Clear,100,2012-10-01 06:50:00
10:20 AM,73.4,53.6,50,30.12,-9999.0,ENE,9.2,-,N/A,,Clear,60,2012-10-01 07:20:00
10:50 AM,77.0,51.8,41,30.12,-9999.0,ENE,13.8,-,N/A,,Clear,70,2012-10-01 07:50:00
11:20 AM,78.8,51.8,39,30.12,-9999.0,ENE,11.5,-,N/A,,Clear,60,2012-10-01 08:20:00
11:50 AM,82.4,50.0,32,30.12,-9999.0,East,13.8,-,N/A,,Clear,80,2012-10-01 08:50:00
12:20 PM,84.2,50.0,30,30.12,-9999.0,ENE,12.7,-,N/A,,Clear,60,2012-10-01 09:20:00
12:50 PM,86.0,44.6,23,30.12,-9999.0,ENE,16.1,-,N/A,,Clear,70,2012-10-01 09:50:00
1:20 PM,86.0,44.6,23,30.12,-9999.0,ENE,19.6,-,N/A,,Clear,60,2012-10-01 10:20:00
1:50 PM,87.8,44.6,22,30.09,-9999.0,ENE,16.1,-,N/A,,Clear,60,2012-10-01 10:50:00
2:20 PM,87.8,44.6,22,30.09,-9999.0,ENE,13.8,-,N/A,,Clear,60,2012-10-01 11:20:00
2:50 PM,89.6,44.6,21,30.06,-9999.0,ENE,16.1,-,N/A,,Clear,70,2012-10-01 11:50:00
3:00 PM,90,45,13,30.09,6,ENE,16.1,,,,,70,2012-10-01 12:00:00
3:20 PM,89.6,44.6,21,30.06,-9999.0,ENE,16.1,-,N/A,,Clear,60,2012-10-01 12:20:00
3:50 PM,89.6,44.6,21,30.06,-9999.0,NE,16.1,-,N/A,,Clear,50,2012-10-01 12:50:00
4:20 PM,89.6,44.6,21,30.06,-9999.0,NE,16.1,-,N/A,,Clear,50,2012-10-01 13:20:00
4:50 PM,89.6,44.6,21,30.06,-9999.0,ENE,15.0,-,N/A,,Clear,60,2012-10-01 13:50:00
5:20 PM,87.8,44.6,22,30.06,-9999.0,ENE,15.0,-,N/A,,Clear,60,2012-10-01 14:20:00
5:50 PM,89.6,48.2,24,30.04,-9999.0,ENE,12.7,-,N/A,,Clear,60,2012-10-01 14:50:00
6:20 PM,87.8,48.2,25,30.04,-9999.0,ENE,11.5,-,N/A,,Clear,60,2012-10-01 15:20:00
6:50 PM,86.0,50.0,29,30.04,-9999.0,NE,9.2,-,N/A,,Clear,50,2012-10-01 15:50:00
7:20 PM,84.2,53.6,35,30.06,-9999.0,ENE,6.9,-,N/A,,Clear,70,2012-10-01 16:20:00
7:50 PM,82.4,53.6,37,30.06,-9999.0,ENE,10.4,-,N/A,,Clear,60,2012-10-01 16:50:00
8:20 PM,78.8,53.6,42,30.06,-9999.0,NE,10.4,-,N/A,,Clear,50,2012-10-01 17:20:00
8:50 PM,77.0,60.8,57,30.09,-9999.0,NNE,6.9,-,N/A,,Clear,30,2012-10-01 17:50:00
9:00 PM,77,60,46,30.11,6,NNE,6.9,,,,,30,2012-10-01 18:00:00
9:20 PM,75.2,60.8,61,30.09,-9999.0,NNE,6.9,-,N/A,,Clear,20,2012-10-01 18:20:00
9:50 PM,75.2,59.0,57,30.09,-9999.0,NNE,6.9,-,N/A,,Clear,20,2012-10-01 18:50:00
10:20 PM,73.4,59.0,61,30.09,-9999.0,ENE,6.9,-,N/A,,Clear,60,2012-10-01 19:20:00
10:50 PM,71.6,60.8,69,30.09,-9999.0,NE,6.9,-,N/A,,Clear,40,2012-10-01 19:50:00
11:20 PM,71.6,60.8,69,30.09,-9999.0,NE,6.9,-,N/A,,Clear,40,2012-10-01 20:20:00
11:50 PM,71.6,60.8,69,30.12,-9999.0,ENE,8.1,-,N/A,,Clear,60,2012-10-01 20:50:00